Location: Abliwn
(31.2080°N, 8.9159°W)
Time: 23:04:47
(UTC+00:00)

Daily predictions for brighter satellites

Satellite Brightness Start Highest point End
(mag) Time Altitude Azimuth Time Altitude Azimuth Time Altitude Azimuth
Cosmos 2026 Rocket 4.4 17:46:38 10° NNE 17:52:18 39° E 17:57:53 10° SSE
GPS 2-04 Rocket1 3.3 17:53:06 10° WNW 17:57:03 43° N 18:00:59 10° ENE
Meteor 1-20 Rocket 4.3 17:52:56 10° N 17:58:45 69° E 18:04:33 10° SSE
Meteor 1-26 Rocket 4.4 17:53:52 10° S 17:59:42 69° E 18:05:41 10° NNE
H-2A R/B 2.8 17:55:25 10° SE 17:59:53 29° ENE 18:04:15 10° NNE
CZ-4B R/B 3.3 17:55:44 10° S 17:59:54 70° WSW 18:03:52 10° NNW
USA 276 3.3 18:02:02 10° NNW 18:04:38 24° NE 18:07:14 10° E
BREEZE-M DEB (TANK) 3.9 17:58:04 10° NW 18:05:01 48° NNE 18:07:51 10° ESE
Cosmos 1933 4.0 18:01:06 10° SSW 18:05:05 61° W 18:09:06 10° N
PSLV R/B 4.3 18:02:14 10° SE 18:05:35 34° ENE 18:08:57 10° N
SJ 16-02 4.4 18:03:46 10° NW 18:06:45 18° W 18:09:43 10° SW
Cosmos 841 Rocket 3.7 18:04:51 10° SSW 18:10:00 73° WNW 18:15:09 10° NNE
ATLAS 5 CENTAUR R/B 4.1 17:58:48 10° SW 18:10:19 20° S 18:15:17 10° SE
Landsat 5 4.5 18:10:00 10° NE 18:13:20 25° E 18:16:35 10° SSE
Cosmos 1809 Rocket 4.4 18:08:44 10° N 18:14:47 70° E 18:20:50 10° SSE
SKYMED 2 3.8 18:14:52 10° NNE 18:19:04 47° E 18:23:14 10° S
Cosmos 1666 3.7 18:16:48 10° NNE 18:19:48 23° E 18:22:46 10° SE
Cosmos 1937 Rocket 3.5 18:17:14 10° N 18:22:30 62° ENE 18:27:44 10° SSE
NOAA 6 4.3 18:19:57 10° S 18:25:04 74° WSW 18:30:13 10° NNW
USA 229 DEB 4.0 18:21:30 10° NNW 18:29:04 76° ENE 18:36:59 10° SE
USA 229 3.9 18:21:36 10° NNW 18:29:10 75° ENE 18:37:04 10° SE
Cosmos 1812 2.7 18:27:29 10° S 18:31:20 85° W 18:35:11 10° N
Sich 1 3.0 18:27:05 10° N 18:31:24 88° E 18:35:43 10° S
Cosmos 1697 Rocket 2.7 18:27:51 10° NNW 18:33:28 90° W 18:39:05 10° SSE
Cosmos 372 Rocket 4.2 18:28:27 10° N 18:33:30 47° ENE 18:38:31 10° SE
Cosmos 1805 Rocket 4.0 18:29:16 10° NNW 18:33:32 64° W 18:37:50 10° S
H-2A R/B 4.1 18:37:23 12° ESE 18:37:23 12° ESE 18:38:14 10° SE
deb Chang Zheng 4 3.9 18:33:05 10° SE 18:37:06 41° ENE 18:41:10 10° N
Cosmos 1980 Rocket 2.4 18:32:27 10° N 18:37:53 46° ENE 18:43:14 10° SE
USA 234 3.5 18:31:40 10° ESE 18:37:53 49° NE 18:44:06 10° NNW
SMAP 4.3 18:34:45 10° S 18:39:12 46° W 18:43:40 10° NNW
Cosmos 2369 3.7 18:34:19 10° NNW 18:40:00 64° ENE 18:45:38 10° SSE
Meteor 1-14 Rocket 4.4 18:34:16 10° N 18:40:04 57° E 18:45:54 10° SSE
Cosmos 2084 3.9 18:35:47 10° NW 18:40:11 69° WSW 18:44:44 10° SSE
Cosmos 1515 Rocket 4.1 18:39:33 10° SSE 18:43:37 36° E 18:46:04 20° NE
Meteor 1-5 Rocket 4.4 18:38:40 10° N 18:44:32 55° E 18:50:13 10° SSE
Cosmos 2082 Rocket 3.4 18:39:17 10° SW 18:44:36 40° WNW 18:49:56 10° N
CZ-4C R/B 3.5 18:41:16 10° NNW 18:48:18 38° NE 18:56:06 10° ESE
ARGOS 3.0 18:56:07 10° SSE 19:01:30 72° ENE 19:06:53 10° N
Meteor 2-16 Rocket 4.4 18:57:26 10° N 19:03:34 89° W 19:09:43 10° S
Cosmos 2278 3.7 18:58:27 10° N 19:04:02 55° ENE 19:09:35 10° SE
Meteor 1-27 Rocket 3.9 18:59:25 10° SSE 19:04:40 45° E 19:06:41 32° NE
Cosmos 921 Rocket 3.1 19:02:45 10° SSW 19:06:54 73° WNW 19:09:34 22° N
COSMO-SKYMED 1 3.8 19:02:58 10° N 19:07:02 41° WNW 19:11:07 10° SW
CZ-2C R/B 1.1 19:04:41 10° WSW 19:08:55 82° NNW 19:09:35 61° ENE
DMSP B5D2-2 4.0 19:10:16 26° NNE 19:13:16 67° ESE 19:18:27 10° S
Meteor 2-15 Rocket 4.3 19:08:42 10° S 19:14:50 81° E 19:20:57 10° N
IRAS Rocket 4.2 19:13:22 34° NE 19:15:36 59° ESE 19:21:03 10° S
Cosmos 1633 Rocket 3.4 19:12:21 10° NNW 19:16:41 64° W 19:21:01 10° S
SJ-11-01 4.4 19:12:05 10° S 19:16:49 74° WSW 19:21:33 10° NNW
Cosmos 2266 Rocket 4.0 19:13:13 10° N 19:19:34 63° E 19:25:53 10° SSE
APEX 3.8 19:15:24 10° SSW 19:19:48 57° WNW 19:20:49 41° NNW
X-37B 2.3 19:19:42 10° WSW 19:21:27 28° WNW 19:21:27 28° WNW
Okean O Rocket 2.1 19:19:35 10° S 19:23:58 61° W 19:28:22 10° NNW
CZ-4B R/B 3.9 19:18:45 10° S 19:24:06 55° W 19:29:22 10° NNW
Cosmos 836 Rocket 4.4 19:23:36 10° SSW 19:28:54 89° WNW 19:30:28 47° NNE
Centaur D-1A AC-32 3.1 19:25:07 10° WSW 19:28:59 35° S 19:29:33 33° SSE
CCE 1 Rocket 4.2 19:26:31 10° WSW 19:29:52 39° S 19:29:52 39° S
CZ-2C R/B 4.4 19:26:16 10° NNW 19:30:38 28° WNW 19:35:00 10° SW
GPS 2-04 Rocket1 3.6 19:32:33 10° WNW 19:35:31 45° WNW 19:35:31 45° WNW
Cosmos 1867 3.5 19:32:32 10° SSW 19:37:59 85° WNW 19:38:37 70° NNE
H-2A R/B 4.2 19:34:56 10° SSW 19:39:12 25° W 19:43:23 10° NW
Cosmos 1470 Rocket 4.3 19:41:29 10° NNW 19:45:50 52° W 19:50:10 10° S
Cosmos 1241 Rocket 4.5 19:42:56 10° SSW 19:49:21 81° WNW 19:50:25 63° N
Delta 128 4.4 19:43:16 10° W 19:49:32 59° S 19:49:43 59° S
Tiangong 4.3 19:47:06 10° SW 19:47:32 13° SW 19:47:32 13° SW
Meteor 1-11 Rocket 3.8 19:44:49 10° N 19:51:12 70° S 19:56:17 10° S
Cosmos 1655 Rocket 4.5 19:49:53 10° NNW 19:56:08 59° W 20:02:20 10° S
BREEZE M DEB (TANK) 4.3 19:54:17 10° NW 20:05:05 43° WSW 20:06:24 36° SSW
ATLAS 3B CENTAUR R/B 4.3 19:51:47 10° W 20:11:52 80° S 20:16:07 56° ESE
H-2A R/B 4.3 20:14:27 23° SW 20:14:27 23° SW 20:16:17 10° SW
USA 234 4.4 20:16:07 16° S 20:20:52 37° SW 20:26:50 10° WNW
CZ-4C R/B 3.9 20:29:30 10° NW 20:37:05 49° WSW 20:42:43 21° S
